Weather History for LIVC - June, 2013

Change the Weather History Date:

Thursday, June 27, 2013

  Actual Average Record
Temperature  
Mean Temperature 40 °F -  
Max Temperature 45 °F 54 °F 68 °F (2001)
Min Temperature 36 °F 46 °F 36 °F (2013)
Degree Days  
Heating Degree Days 24    
Moisture  
Dew Point 36 °F    
Average Humidity 85    
Maximum Humidity 93    
Minimum Humidity 66    
Precipitation  
Precipitation 0.28 in 0.07 in - ()
Sea Level Pressure  
Sea Level Pressure 30.22 in    
Wind  
Wind Speed 17 mph ()    
Max Wind Speed 29 mph    
Max Gust Speed -    
Visibility 1.5 miles    
Events Fog , Rain , Thunderstorm    
Averages and records for this station are not official NWS values.
T = Trace of Precipitation, MM = Missing Value Source: Averaged Metar Reports

Daily Weather History Graph

Daily Weather History Graph

Search for Another Location

Airport or City:

Trip Planner

Search our weather history database for the weather conditions in past years. The results will help you decide how hot, cold, wet, or windy it might be!

Date:

Astronomy

Jun. 27, 2013 Rise Set
Actual Time 5:35 AM CEST 9:04 PM CEST
Civil Twilight 4:59 AM CEST 9:41 PM CEST
Nautical Twilight 4:11 AM CEST 10:29 PM CEST
Astronomical Twilight 3:09 AM CEST 11:30 PM CEST
Moon 11:40 PM CEST (6/27) 10:28 AM CEST (6/27)
Length of Visible Light 16h 42m
Length of Day
15h 29m
Waning Gibbous, 79% of the Moon is Illuminated
Jun 27
Waning Gibbous
Jun 30
Last Quarter
Jul 8
New
Jul 16
First Quarter
Jul 22
Full

Hourly Weather History & Observations

Time (CEST) Temp. Windchill Dew Point Humidity Pressure Visibility Wind Dir Wind Speed Gust Speed Precip Events Conditions
12:55 AM 37.4 °F 25.2 °F 33.8 °F 87% 30.24 in - NNE 28.8 mph - N/A   Clear
1:55 AM 37.4 °F 26.4 °F 33.8 °F 87% 30.24 in - NNE 23.0 mph - N/A   Clear
2:00 AM 37 °F - 33 °F 80%  in 19 mi NNE 23.0 mph - -   Partly Cloudy
2:55 AM 37.4 °F 26.1 °F 33.8 °F 87% 30.24 in - NE 24.2 mph - N/A   Clear
3:55 AM 37.4 °F 25.4 °F 33.8 °F 87% 30.24 in - NE 27.6 mph - N/A   Clear
4:55 AM 35.6 °F 23.2 °F 33.8 °F 93% 30.24 in - NNE 26.5 mph - N/A   Clear
5:55 AM 35.6 °F 23.4 °F 33.8 °F 93% 30.24 in 0.1 mi NNE 25.3 mph - N/A Fog Fog
6:55 AM 35.6 °F 23.2 °F 33.8 °F 93% 30.24 in 0.1 mi NNE 26.5 mph - N/A Fog Fog
7:55 AM 35.6 °F 23.4 °F 33.8 °F 93% 30.24 in 0.1 mi NNE 25.3 mph - N/A Fog Fog
8:00 AM 36 °F - 33 °F 87%  in 0 mi NNE 25.3 mph - - Fog Heavy Fog
8:55 AM 37.4 °F 28.9 °F 33.8 °F 87% 30.24 in 0.1 mi NNE 13.8 mph - N/A Fog Fog
9:55 AM 39.2 °F 31.2 °F 35.6 °F 87% 30.24 in 1.9 mi NNE 13.8 mph - N/A   Mist
10:55 AM 42.8 °F 37.0 °F 32.0 °F 66% 30.24 in 1.9 mi NNE 10.4 mph - N/A   Mist
1:55 PM 44.6 °F 40.7 °F 37.4 °F 76% 30.24 in 0.7 mi NNE 6.9 mph - N/A   Mist
2:00 PM 45 °F - 38 °F 68%  in 1 mi NNE 6.9 mph - -   Mist
2:55 PM 42.8 °F 38.6 °F 37.4 °F 81% 30.24 in 0.7 mi WNW 6.9 mph - N/A   Mist
3:55 PM 41.0 °F 35.2 °F 37.4 °F 87% 30.24 in 0.0 mi West 9.2 mph - N/A Fog , Rain , Thunderstorm Thunderstorms and Rain
4:55 PM 42.8 °F 37.0 °F 35.6 °F 76% 30.21 in 6.2 mi West 10.4 mph - N/A Rain Light Rain
5:55 PM 41.0 °F 36.4 °F 37.4 °F 87% 30.21 in 0.0 mi West 6.9 mph - N/A Fog Fog
6:55 PM 42.8 °F 37.5 °F 39.2 °F 87% 30.18 in 0.0 mi West 9.2 mph - N/A Fog , Rain Light Rain
7:55 PM 41.0 °F 35.2 °F 39.2 °F 93% 30.18 in 0.0 mi West 9.2 mph - N/A Fog , Rain Light Rain
8:00 PM 42 °F - 39 °F 85%  in 0 mi West 9.2 mph - - Rain Light Rain
8:55 PM 41.0 °F 35.8 °F 37.4 °F 87% 30.18 in 0.0 mi West 8.1 mph - N/A Fog , Rain , Thunderstorm Thunderstorms and Rain
9:55 PM 41.0 °F 35.2 °F 37.4 °F 87% 30.18 in 0.0 mi West 9.2 mph - N/A Fog , Rain Light Rain
10:55 PM 39.2 °F 34.2 °F 35.6 °F 87% 30.18 in 0.0 mi West 6.9 mph - N/A Fog Fog
11:55 PM 39.2 °F 35.9 °F 35.6 °F 87% 30.18 in 0.0 mi WSW 4.6 mph - N/A Fog Fog